CZ-3B R/B (49259 NORAD) Tracking and Keplerian Element Data

This shows tracking and keplerian element data for the satellite.

Feedback or suggestion? Click here.




ElementValue
Catalog49259
NameCZ-3B R/B
Epoch Orbit60
Epoch Day298.86318047
Epoch Year2021
RAAN72.5889
Inclination51.3894
Eccentricity0.7499126
Argument of Perigee230.3684
Mean Anonmoly35.7306
Mean Motion2.04013834
Decay Rate5.416E-05
L11 49259U 21087B 21298.86318047 .00005416 11891-5 58590-3 0 9997
L22 49259 51.3894 72.5889 7499126 230.3684 35.7306 2.04013834 609

Live tracking and technical data element details for CZ-3B R/B (NORAD 49259). CZ-3B R/B can be tracked NOW for your location showing map with azimuth and elevation plus other details from your city location.

Track the satellite on the map from your city or location and see movement details for azimuth, elevation, latitude, longitude, range, height, and movement on the map or in text.







IsCatalogInMostPopularTable: catalog: 49259, numindb: 17
Update: records affected: 1



GetName: 49259 CZ-3B R/B

Hit Count: updated at: Mon, 06 Dec 2021 14:17:25 GMT